Content
SEND FEEDBACK

Daily
Averages
Monthly
Summary
United States of America

ASHEVILLE, NORTH CAROLINA


Home > North America > United States > North Carolina
Elevation: 2240 feet     Latitude: 35 36N     Longitude: 082 32W

WEATHER
 
SELECT A DAY
Number of Records: 225,765;   Date Range: 1/1/95 - 7/27/14
 
SHARE

PRINT THIS DATA

[ ← Previous Day ]
WEATHER ALMANAC - MAY 19, 2013
[ Next Day → ]
[ °C ]   °F
Weather ElementAverageHighLow
Temperature66.1 °F73.9 °F (12:54 pm)62.6 °F (1:11 am)
Dewpoint62.5 °F64 °F (10:54 am)60.8 °F (5:17 am)
Humidity89 %100 % (1:11 am)68 % (11:54 am)
Barometer30.10 in30.16 in (8:01 am)30.01 in (5:54 pm)
Wind Speed4.6 mph13.8 mph (1:54 pm)
Wind Gust19.6 mph (2:54 pm)
Weather ElementAverage
Visibility7.3 mi
Wind DirectionESE (125.6 °)

Weather ElementTotal
Precipitation1.05 in
Cooling Degree Days3.3 (Base 65)
Growing Degree Days18.3 (Base 50)
Averaged from 50 records on May 19, 2013
WEATHER CONDITIONS BREAKOUT
WIND DIRECTION BREAKOUT
WEATHER BY HOUR - MAY 19, 2013
[ °C ]   °F
Local TimeTemperatureDewpointHumidityBarometerVisibilityWind DirectionWind SpeedGust SpeedPrecipitationEventsConditions
12:32 AM64.4 °F62.6 °F94 %30.13 in9.0 miSE (130°)4.6 mphOvercast
12:54 AM63.0 °F62.1 °F97 %30.08 in10.0 miSSE (160°)3.5 mphOvercast
1:11 AM62.6 °F62.6 °F100 %30.13 in9.0 miSouth (180°)3.5 mphOvercast
1:54 AM63.0 °F62.1 °F97 %30.06 in8.0 miCalmOvercast
2:54 AM63.0 °F62.1 °F97 %30.06 in7.0 miSSE (150°)4.6 mphOvercast
3:10 AM62.6 °F62.6 °F100 %30.11 in6.0 miSouth (180°)3.5 mphOvercast
3:54 AM63.0 °F62.1 °F97 %30.05 in8.0 miCalmOvercast
4:54 AM63.0 °F62.1 °F97 %30.06 in8.0 miSSE (150°)3.5 mphOvercast
5:17 AM62.6 °F60.8 °F94 %30.12 in9.0 miCalmOvercast
5:54 AM63.0 °F61.0 °F93 %30.06 in8.0 miCalmOvercast
6:13 AM62.6 °F62.6 °F100 %30.13 in7.0 miCalmOvercast
6:49 AM62.6 °F62.6 °F100 %30.14 in3.0 miSouth (190°)3.5 mph0.00 inRainLight Rain
6:54 AM63.0 °F62.1 °F97 %30.09 in2.5 miSouth (190°)3.5 mph0.00 inRainLight Rain
7:03 AM62.6 °F62.6 °F100 %30.15 in1.2 miCalm0.01 inRainHeavy Rain
7:11 AM62.6 °F62.6 °F100 %30.14 in0.5 miCalm0.12 inFog-RainHeavy Rain
7:22 AM62.6 °F62.6 °F100 %30.14 in1.0 miSSE (160°)4.6 mph0.24 inRainHeavy Rain
7:30 AM62.6 °F62.6 °F100 %30.14 in1.0 miSSE (160°)4.6 mph0.28 inRainHeavy Rain
7:49 AM62.6 °F62.6 °F100 %30.15 in1.0 miSouth (190°)3.5 mph0.32 inRainRain
7:54 AM62.6 °F62.6 °F100 %30.15 in1.0 miSSE (160°)3.5 mphRainRain
8:01 AM62.6 °F62.6 °F100 %30.16 in1.5 miSouth (170°)4.6 mph0.01 inRainRain
8:15 AM62.6 °F62.6 °F100 %30.15 in2.0 miSSE (160°)6.9 mph0.02 inRainLight Rain
8:43 AM62.6 °F62.6 °F100 %30.16 in2.0 miSouth (170°)3.5 mph0.02 inOvercast
8:54 AM63.0 °F63.0 °F100 %30.11 in2.0 miSouth (170°)4.6 mph0.02 inOvercast
9:54 AM66.0 °F63.0 °F90 %30.09 in2.0 miSSE (150°)4.6 mphOvercast
9:57 AM66.2 °F62.6 °F88 %30.15 in10.0 miSSE (160°)4.6 mphOvercast
10:54 AM69.1 °F64.0 °F84 %30.08 in10.0 miSouth (170°)8.1 mphPartly Cloudy
11:54 AM73.0 °F62.1 °F68 %30.07 in10.0 miSSE (160°)8.1 mphScattered Clouds
12:54 PM73.9 °F63.0 °F68 %30.04 in10.0 miSSE (160°)12.7 mph17.3 mph0.01 inScattered Clouds
1:54 PM72.0 °F63.0 °F73 %30.05 in10.0 miSouth (190°)13.8 mphMostly Cloudy
2:01 PM71.6 °F62.6 °F73 %30.11 in10.0 miSouth (180°)11.5 mphOvercast
2:17 PM71.6 °F62.6 °F73 %30.10 in10.0 miSouth (180°)11.5 mphOvercast
2:27 PM73.4 °F62.6 °F69 %30.10 in10.0 miSouth (170°)13.8 mphOvercast
2:54 PM71.6 °F62.6 °F73 %30.11 in10.0 miSouth (190°)13.8 mph19.6 mphOvercast
3:04 PM69.8 °F62.6 °F78 %30.11 in10.0 miSouth (190°)9.2 mphMostly Cloudy
3:54 PM71.1 °F63.0 °F75 %30.04 in10.0 miSSW (200°)9.2 mphScattered Clouds
4:51 PM69.8 °F62.6 °F78 %30.10 in10.0 miSouth (170°)9.2 mphOvercast
4:54 PM70.0 °F63.0 °F78 %30.04 in10.0 miSSW (200°)5.8 mphOvercast
5:18 PM69.8 °F62.6 °F78 %30.08 in10.0 miSouth (170°)4.6 mph0.00 inRainLight Rain
5:54 PM70.0 °F62.1 °F76 %30.01 in10.0 miWSW (250°)3.5 mph0.00 inScattered Clouds
6:02 PM69.8 °F62.6 °F78 %30.08 in10.0 miWSW (250°)4.6 mphMostly Cloudy
6:27 PM69.8 °F62.6 °F78 %30.07 in10.0 miSSW (200°)4.6 mphOvercast
6:54 PM70.0 °F63.0 °F78 %30.01 in10.0 miSE (140°)4.6 mphScattered Clouds
7:54 PM69.1 °F62.1 °F78 %30.04 in10.0 miSE (130°)5.8 mphOvercast
8:54 PM66.9 °F63.0 °F87 %30.05 in10.0 miCalmMostly Cloudy
9:33 PM66.2 °F62.6 °F88 %30.11 in10.0 miCalmScattered Clouds
9:54 PM64.9 °F63.0 °F93 %30.06 in10.0 miCalmClear
10:54 PM63.0 °F62.1 °F97 %30.08 in10.0 miCalmClear
11:22 PM64.4 °F62.6 °F94 %30.13 in9.0 miCalmMostly Cloudy
11:31 PM62.6 °F62.6 °F100 %30.13 in9.0 miCalmScattered Clouds
11:54 PM63.0 °F61.0 °F93 %30.06 in9.0 miCalmClear
Hourly data recorded from KAVL, located miles away from Asheville, North Carolina







STORIES FROM OUR PARTNERS